Weather History for Lambertville, MI

Change the Weather History Date:

Friday, November 8, 2013

  Actual Average (KTOL) Record (KTOL)
Temperature  
Mean Temperature 40 °F 45 °F  
Max Temperature 46 °F 54 °F 73 °F (1945)
Min Temperature 33 °F 36 °F 9 °F (1991)
Degree Days  
Heating Degree Days 26 20  
Month to date heating degree days 153  
Since 1 July heating degree days 679  
Cooling Degree Days 0 0  
Month to date cooling degree days 0  
Year to date cooling degree days 793  
Moisture  
Dew Point 30 °F    
Average Humidity 72    
Maximum Humidity 93    
Minimum Humidity 46    
Precipitation  
Precipitation 0.00 in 0.09 in 0.98 in (1966)
Month to date precipitation 0.72  
Year to date precipitation 29.42  
Snow  
Snow 0.00 in 0.00 in - ()
Month to date snowfall 0.2  
Since 1 July snowfall 0.4  
Since 1 September snowfall 0.4  
Snow Depth -    
Sea Level Pressure  
Sea Level Pressure 30.23 in    
Wind  
Wind Speed 6 mph (WSW)    
Max Wind Speed 10 mph    
Max Gust Speed 18 mph    
Visibility 9 miles    
Events      
T = Trace of Precipitation, MM = Missing Value Source: NWS Daily Summary

Daily Weather History Graph

Daily Weather History Graph

Search for Another Location

Airport:

Trip Planner

Search our weather history database for the weather conditions in past years. The results will help you decide how hot, cold, wet, or windy it might be!

Date:

Astronomy

Nov. 08, 2013 Rise Set
Actual Time 7:15 AM EST 5:20 PM EST
Civil Twilight 6:46 AM EST 5:50 PM EST
Nautical Twilight 6:12 AM EST 6:23 PM EST
Astronomical Twilight 5:40 AM EST 6:55 PM EST
Moon 12:10 PM EST (11/8) 10:40 PM EST (11/8)
Length of Visible Light 11h 03m
Length of Day
10h 05m
Waxing Crescent, 33% of the Moon is Illuminated
Nov 8
Waxing Crescent
Nov 10
First Quarter
Nov 17
Full
Nov 25
Last Quarter
Dec 2
New

Hourly Weather History & Observations

Time (EST) Temp. Windchill Dew Point Humidity Pressure Visibility Wind Dir Wind Speed Gust Speed Precip Events Conditions
12:15 AM 37.4 °F 30.3 °F 32.0 °F 81% 30.15 in 10.0 mi West 10.4 mph 16.1 mph N/A   Overcast
12:35 AM 37.4 °F 32.8 °F 28.4 °F 70% 30.14 in 10.0 mi WNW 5.8 mph - N/A   Overcast
12:55 AM 37.4 °F 32.1 °F 28.4 °F 70% 30.15 in 10.0 mi WNW 6.9 mph - N/A   Overcast
1:15 AM 37.4 °F 32.1 °F 30.2 °F 75% 30.15 in 10.0 mi West 6.9 mph - N/A   Overcast
1:35 AM 35.6 °F 30.7 °F 30.2 °F 81% 30.15 in 10.0 mi West 5.8 mph - N/A   Mostly Cloudy
1:55 AM 35.6 °F 31.7 °F 32.0 °F 87% 30.16 in 10.0 mi West 4.6 mph - N/A   Overcast
2:15 AM 35.6 °F 30.7 °F 32.0 °F 87% 30.16 in 10.0 mi WSW 5.8 mph - N/A   Overcast
2:35 AM 35.6 °F 31.7 °F 32.0 °F 87% 30.17 in 10.0 mi West 4.6 mph - N/A   Overcast
2:55 AM 35.6 °F 32.8 °F 32.0 °F 87% 30.17 in 10.0 mi WSW 3.5 mph - N/A   Overcast
3:15 AM 35.6 °F 30.7 °F 32.0 °F 87% 30.17 in 10.0 mi West 5.8 mph - N/A   Overcast
3:35 AM 35.6 °F 30.7 °F 32.0 °F 87% 30.17 in 10.0 mi West 5.8 mph - N/A   Overcast
3:55 AM 35.6 °F 30.7 °F 30.2 °F 81% 30.18 in 10.0 mi West 5.8 mph - N/A   Overcast
4:15 AM 35.6 °F 31.7 °F 32.0 °F 87% 30.18 in 10.0 mi West 4.6 mph - N/A   Overcast
4:35 AM 35.6 °F 30.7 °F 32.0 °F 87% 30.18 in 10.0 mi West 5.8 mph - N/A   Overcast
4:55 AM 35.6 °F 29.9 °F 32.0 °F 87% 30.19 in 10.0 mi West 6.9 mph - N/A   Overcast
5:15 AM 35.6 °F 30.7 °F 32.0 °F 87% 30.19 in 10.0 mi West 5.8 mph - N/A   Overcast
5:35 AM 35.6 °F 29.9 °F 32.0 °F 87% 30.20 in 10.0 mi West 6.9 mph - N/A   Overcast
5:55 AM 35.6 °F 30.7 °F 32.0 °F 87% 30.21 in 10.0 mi West 5.8 mph - N/A   Overcast
6:15 AM 35.6 °F 29.9 °F 32.0 °F 87% 30.22 in 10.0 mi West 6.9 mph - N/A   Overcast
6:35 AM 35.6 °F 32.8 °F 32.0 °F 87% 30.23 in 10.0 mi NW 3.5 mph - N/A   Mostly Cloudy
6:55 AM 33.8 °F - 32.0 °F 93% 30.23 in 10.0 mi Calm Calm - N/A   Scattered Clouds
7:15 AM 33.8 °F 30.8 °F 32.0 °F 93% 30.24 in 10.0 mi West 3.5 mph - N/A   Scattered Clouds
7:35 AM 33.8 °F 29.6 °F 32.0 °F 93% 30.25 in 10.0 mi West 4.6 mph - N/A   Mostly Cloudy
7:55 AM 35.6 °F 31.7 °F 32.0 °F 87% 30.26 in 10.0 mi West 4.6 mph - N/A   Overcast
8:15 AM 35.6 °F 30.7 °F 32.0 °F 87% 30.27 in 10.0 mi West 5.8 mph - N/A   Overcast
8:35 AM 35.6 °F 31.7 °F 32.0 °F 87% 30.28 in 10.0 mi West 4.6 mph - N/A   Overcast
8:55 AM 35.6 °F 32.8 °F 32.0 °F 87% 30.28 in 10.0 mi West 3.5 mph - N/A   Mostly Cloudy
9:15 AM 39.2 °F 33.6 °F 32.0 °F 75% 30.29 in 10.0 mi WNW 8.1 mph - N/A   Overcast
9:35 AM 39.2 °F 33.6 °F 32.0 °F 75% 30.29 in 10.0 mi West 8.1 mph - N/A   Overcast
9:55 AM 41.0 °F 34.7 °F 32.0 °F 70% 30.30 in 10.0 mi West 10.4 mph - N/A   Scattered Clouds
10:15 AM 42.8 °F 38.0 °F 30.2 °F 61% 30.29 in 10.0 mi West 8.1 mph - N/A   Clear
10:35 AM 42.8 °F 38.0 °F 30.2 °F 61% 30.30 in 10.0 mi West 8.1 mph - N/A   Clear
10:55 AM 42.8 °F 38.6 °F 30.2 °F 61% 30.30 in 10.0 mi West 6.9 mph 18.4 mph N/A   Scattered Clouds
11:15 AM 42.8 °F 37.5 °F 30.2 °F 61% 30.30 in 10.0 mi West 9.2 mph - N/A   Scattered Clouds
11:35 AM 44.6 °F 40.2 °F 28.4 °F 53% 30.30 in 10.0 mi West 8.1 mph - N/A   Scattered Clouds
11:55 AM 44.6 °F 39.2 °F 26.6 °F 49% 30.30 in 10.0 mi West 10.4 mph - N/A   Overcast
12:15 PM 42.8 °F 38.0 °F 26.6 °F 53% 30.29 in 10.0 mi West 8.1 mph - N/A   Mostly Cloudy
12:35 PM 44.6 °F 40.7 °F 26.6 °F 49% 30.29 in 10.0 mi West 6.9 mph - N/A   Mostly Cloudy
12:55 PM 42.8 °F 38.6 °F 26.6 °F 53% 30.28 in 10.0 mi West 6.9 mph - N/A   Overcast
1:15 PM 42.8 °F 38.6 °F 26.6 °F 53% 30.28 in 10.0 mi WNW 6.9 mph - N/A   Scattered Clouds
1:35 PM 42.8 °F 39.3 °F 26.6 °F 53% 30.27 in 10.0 mi West 5.8 mph - N/A   Clear
1:55 PM 44.6 °F 40.7 °F 26.6 °F 49% 30.26 in 10.0 mi WNW 6.9 mph - N/A   Mostly Cloudy
2:15 PM 44.6 °F 40.2 °F 26.6 °F 49% 30.26 in 10.0 mi SW 8.1 mph - N/A   Scattered Clouds
2:35 PM 44.6 °F 40.2 °F 26.6 °F 49% 30.25 in 10.0 mi WSW 8.1 mph - N/A   Scattered Clouds
2:55 PM 44.6 °F 41.4 °F 26.6 °F 49% 30.25 in 10.0 mi West 5.8 mph - N/A   Scattered Clouds
3:15 PM 46.4 °F 42.4 °F 26.6 °F 46% 30.25 in 10.0 mi West 8.1 mph - N/A   Scattered Clouds
3:35 PM 44.6 °F 42.2 °F 28.4 °F 53% 30.25 in 10.0 mi West 4.6 mph - N/A   Clear
3:55 PM 44.6 °F 40.2 °F 26.6 °F 49% 30.25 in 10.0 mi SW 8.1 mph - N/A   Scattered Clouds
4:15 PM 44.6 °F 41.4 °F 26.6 °F 49% 30.25 in 10.0 mi WSW 5.8 mph - N/A   Clear
4:35 PM 44.6 °F 42.2 °F 28.4 °F 53% 30.25 in 10.0 mi West 4.6 mph - N/A   Clear
4:55 PM 42.8 °F 41.1 °F 26.6 °F 53% 30.25 in 10.0 mi SW 3.5 mph - N/A   Clear
5:15 PM 42.8 °F 40.1 °F 26.6 °F 53% 30.24 in 10.0 mi SW 4.6 mph - N/A   Clear
5:35 PM 41.0 °F - 26.6 °F 57% 30.24 in 10.0 mi Calm Calm - N/A   Clear
5:55 PM 37.4 °F - 28.4 °F 70% 30.24 in 10.0 mi Calm Calm - N/A   Clear
6:15 PM 35.6 °F - 28.4 °F 75% 30.24 in 5.0 mi Calm Calm - N/A   Haze
6:35 PM 33.8 °F - 28.4 °F 81% 30.24 in 3.0 mi Calm Calm - N/A   Haze
6:55 PM 33.8 °F - 28.4 °F 81% 30.24 in 1.8 mi Calm Calm - N/A   Haze
7:15 PM 33.8 °F 30.8 °F 28.4 °F 81% 30.24 in 3.0 mi South 3.5 mph - N/A   Haze
7:35 PM 33.8 °F 30.8 °F 28.4 °F 81% 30.24 in 5.0 mi South 3.5 mph - N/A   Haze
7:55 PM 33.8 °F - 28.4 °F 81% 30.24 in 3.0 mi Calm Calm - N/A   Haze
8:15 PM 33.8 °F 30.8 °F 28.4 °F 81% 30.24 in 5.0 mi South 3.5 mph - N/A   Haze
8:35 PM 35.6 °F 32.8 °F 28.4 °F 75% 30.23 in 5.0 mi South 3.5 mph - N/A   Haze
8:55 PM 33.8 °F 30.8 °F 28.4 °F 81% 30.22 in 7.0 mi South 3.5 mph - N/A   Clear
9:15 PM 35.6 °F 32.8 °F 28.4 °F 75% 30.22 in 5.0 mi South 3.5 mph - N/A   Haze
9:35 PM 35.6 °F 31.7 °F 28.4 °F 75% 30.21 in 7.0 mi SSE 4.6 mph - N/A   Clear
9:55 PM 33.8 °F 30.8 °F 28.4 °F 81% 30.22 in 10.0 mi South 3.5 mph - N/A   Clear
10:15 PM 35.6 °F 32.8 °F 30.2 °F 81% 30.22 in 10.0 mi South 3.5 mph - N/A   Scattered Clouds
10:35 PM 37.4 °F 33.8 °F 30.2 °F 75% 30.20 in 10.0 mi SSE 4.6 mph - N/A   Mostly Cloudy
10:55 PM 37.4 °F - 30.2 °F 75% 30.21 in 10.0 mi Calm Calm - N/A   Overcast
11:15 PM 37.4 °F 34.9 °F 30.2 °F 75% 30.20 in 10.0 mi SSE 3.5 mph - N/A   Scattered Clouds
11:35 PM 37.4 °F 34.9 °F 30.2 °F 75% 30.20 in 10.0 mi SSE 3.5 mph - N/A   Clear
11:55 PM 37.4 °F 33.8 °F 30.2 °F 75% 30.19 in 10.0 mi SSE 4.6 mph - N/A   Clear